RH
94 94 94 95 93 93 95 96 94 96 97 98 98 97 96 94 94 96 97 99 99 98 98 98 98 98 99 99 98 98 97 98 98 98 98 97 97 97 98 98 98 99 99
92 94 92 93 94 94 94 94 94 96 97 98 97 97 98 99 98 98 98 97 97 98 97 98 96 97 99 98 98 97 96 97 98 95 97 99 99 98 98 98 97 93 97
90 94 92 91 94 95 94 95 95 96 98 98 97 97 97 96 96 96 95 95 95 96 97 97 98 95 98 98 98 98 98 98 97 98 100 99 99 98 95 86 83 96 89
90 88 93 92 94 95 96 95 96 97 98 98 98 97 95 93 93 93 94 96 97 97 97 96 96 96 96 96 96 97 98 98 98 99 99 99 97 95 96 95 78 86 96
87 85 87 88 94 96 95 96 96 97 98 97 97 98 98 96 96 98 98 98 98 98 98 97 96 94 94 94 98 98 96 98 98 99 99 99 99 99 97 93 82 85 84
77 81 76 82 90 96 97 98 98 99 98 97 97 95 94 89 96 95 95 98 98 98 98 98 98 95 95 93 93 94 96 96 98 98 99 99 100 99 98 99 96 91 81
79 88 78 82 88 97 98 97 98 97 94 94 93 92 93 89 98 96 94 95 91 94 97 97 96 94 94 89 81 76 79 87 94 98 98 97 94 96 95 95 92 93 90
93 92 90 94 94 96 96 97 97 89 83 78 78 86 93 93 94 87 84 81 86 88 81 76 86 93 84 58 62 65 63 62 58 70 89 88 76 75 82 77 81 86 77
98 93 92 96 97 96 97 97 94 92 95 97 89 78 82 86 88 82 71 69 74 82 85 89 92 84 79 75 65 69 73 72 79 83 82 82 82 82 73 64 70 65 73
97 98 95 92 94 96 96 96 90 90 93 90 89 84 85 82 90 79 63 62 74 71 69 76 83 82 86 85 80 85 85 83 75 72 74 73 71 75 77 77 78 78 80
96 97 97 97 98 97 97 95 94 93 96 98 97 92 88 85 85 85 77 64 69 75 79 83 90 88 90 88 83 78 86 86 84 83 76 70 63 70 79 92 91 89 94
97 98 98 98 97 96 96 97 94 91 94 98 98 99 99 98 95 95 92 86 82 83 91 93 94 91 91 90 80 84 84 76 80 85 84 62 56 54 56 67 66 67 72
97 98 98 98 98 98 98 99 99 97 98 99 99 99 99 99 99 96 96 94 91 96 98 95 91 91 85 85 81 79 72 63 58 56 57 69 71 62 49 47 47 54 80
98 98 98 98 98 98 99 98 96 93 98 96 98 99 99 99 99 99 99 98 92 95 89 90 83 80 81 77 74 76 79 80 78 78 74 74 71 59 50 57 57 63 61
78 85 86 89 83 87 80 83 86 94 92 91 93 80 76 83 83 85 92 86 90 86 89 94 93 93 91 94 87 80 79 76 81 83 70 63 62 61 51 56 58 65 65
60 58 59 56 52 53 52 59 76 80 79 78 76 75 80 82 86 83 78 75 78 81 77 80 79 78 80 83 86 79 80 80 88 77 77 69 65 61 58 60 70 73 69
61 60 57 52 54 59 59 51 53 61 80 83 81 78 73 76 77 76 74 71 74 71 71 80 85 84 86 81 77 76 77 72 72 75 79 71 61 57 60 65 72 68 64
68 73 63 55 53 55 50 42 46 48 60 66 69 68 71 70 72 77 76 71 65 71 78 76 83 80 78 74 76 72 71 72 72 78 67 66 66 60 60 66 65 69 70
66 65 65 64 61 61 60 66 69 64 61 60 61 60 64 65 66 71 72 67 64 70 73 72 76 73 71 70 76 74 74 82 75 72 67 66 67 66 66 67 65 67 67
65 63 63 65 65 65 66 69 75 66 62 60 58 54 60 59 59 67 65 60 61 65 69 66 67 69 64 67 66 74 74 80 68 67 68 67 69 69 70 68 61 60 65
73 71 69 68 66 59 64 65 66 63 65 70 68 67 67 58 64 67 58 59 61 61 62 61 66 67 71 69 68 70 73 72 72 71 67 66 66 64 74 67 65 67 70
63 57 60 61 69 68 66 70 63 71 68 65 59 51 72 53 57 57 58 56 60 57 56 59 60 66 69 63 64 67 74 71 70 70 65 61 65 70 75 70 69 69 62
59 56 62 67 64 71 68 70 73 66 61 50 42 37 43 55 56 57 57 60 63 59 59 63 64 66 66 70 74 75 70 67 68 67 60 58 66 74 78 74 72 62 60
56 58 61 59 64 68 71 74 75 65 52 47 38 42 47 54 58 58 58 60 62 62 66 60 56 56 67 73 75 77 78 72 68 62 66 67 69 72 75 74 64 58 59
51 58 65 64 64 68 76 72 72 55 52 50 42 45 51 59 57 56 61 58 60 68 63 60 57 54 59 64 67 66 73 76 62 66 61 61 64 68 73 69 62 59 54
54 57 69 69 69 69 71 73 69 62 52 49 43 49 49 53 56 61 64 62 65 66 62 62 57 58 59 63 62 68 79 78 60 60 58 69 70 74 75 72 69 56 58
Wind_Speed
5 5 5 3 3 4 4 4 4 5 5 6 5 4 3 1 4 4 4 5 5 7 5 5 4 3 3 1 1 2 4 4 4 3 0 3 3 4 5 6 5 4 5
5 6 5 4 4 4 4 5 5 5 5 5 7 7 7 7 7 7 9 7 7 5 5 5 7 4 4 4 3 3 2 2 2 4 1 2 4 1 4 4 3 4 4
5 6 6 4 4 5 5 5 5 6 6 6 7 7 8 9 10 10 10 10 9 8 7 7 6 7 6 5 5 5 3 3 2 2 3 2 2 2 4 4 4 3 4
6 5 6 5 6 5 5 5 6 6 7 7 7 8 8 9 9 10 10 10 9 8 8 8 6 6 6 5 5 5 5 4 4 4 3 3 3 3 3 3 3 2 3
6 5 5 4 5 6 6 6 6 7 7 7 8 8 7 7 5 7 7 6 7 8 7 7 7 12 14 9 4 4 4 3 3 3 2 2 2 1 1 1 2 2 3
6 7 6 6 7 6 7 6 7 8 8 9 8 7 7 6 8 12 8 7 7 7 7 6 5 11 13 16 15 13 6 2 3 2 2 2 1 2 1 1 3 3 2
5 5 7 9 9 9 10 9 9 9 8 8 7 6 6 4 7 11 11 6 7 6 5 5 5 5 7 6 11 13 14 14 6 3 4 3 2 1 1 2 3 2 2
2 6 7 8 11 11 12 10 8 7 8 6 7 6 5 5 12 13 13 8 8 7 6 5 4 4 4 5 7 10 10 10 9 8 8 5 3 1 2 2 2 4 3
7 4 9 11 11 10 11 10 8 9 8 7 6 8 7 8 9 13 11 8 9 8 8 8 6 6 7 7 9 9 8 8 10 14 13 13 14 16 9 3 5 3 3
8 7 6 11 13 12 10 10 8 9 7 7 8 9 13 8 9 9 10 6 9 7 8 10 17 11 15 11 8 6 7 5 5 5 4 8 8 10 12 7 3 4 3
6 8 9 10 12 12 11 8 9 9 9 8 9 9 10 9 10 12 11 8 7 7 7 6 6 14 14 13 11 7 3 3 6 5 4 3 3 4 4 4 3 4 2
9 11 10 10 7 8 12 8 7 10 9 8 8 7 7 8 12 13 14 12 11 8 6 4 5 9 10 10 7 8 10 7 5 5 4 2 3 3 3 1 2 2 1
12 11 12 11 11 8 10 8 7 7 6 6 6 6 5 4 6 12 12 13 11 7 4 7 7 7 9 6 10 10 8 4 4 4 3 3 2 3 3 3 4 5 1
12 11 10 10 10 9 8 5 5 6 6 5 6 5 4 4 4 3 4 5 9 7 6 4 5 6 8 6 6 6 5 4 3 2 2 2 2 3 3 3 3 4 3
10 9 10 8 8 10 7 4 6 5 3 5 4 4 4 4 2 3 3 3 3 3 4 3 3 4 4 4 4 5 5 5 5 3 3 3 4 3 4 3 3 3 3
9 7 6 6 6 6 7 7 15 9 10 10 9 5 4 5 5 6 6 4 3 4 5 3 2 3 4 3 4 4 4 5 3 3 3 3 3 3 3 4 3 3 2
8 7 6 5 5 5 4 5 7 7 12 10 8 7 6 6 6 7 6 6 6 6 5 3 4 4 3 4 3 2 2 2 2 4 3 3 3 3 5 4 3 2 3
6 7 5 4 4 4 4 5 5 6 5 2 5 4 5 5 5 5 6 7 5 5 3 4 4 4 2 3 2 2 3 3 4 4 4 4 4 3 3 3 3 2 2
6 5 5 4 3 3 4 4 4 5 5 4 1 3 2 3 7 8 7 5 3 2 2 3 3 3 2 2 2 2 3 2 2 3 3 3 4 3 3 3 3 4 3
5 9 9 5 4 4 4 4 3 3 5 4 3 3 1 2 3 3 3 3 4 3 3 3 2 2 3 2 2 2 4 3 3 3 3 3 3 2 2 2 3 3 2
5 6 9 5 7 7 6 6 6 5 5 4 4 4 6 3 2 2 3 3 4 4 3 2 3 3 2 2 1 3 3 3 2 2 2 2 3 3 3 2 3 4 2
4 5 4 5 5 5 5 5 8 5 5 5 3 2 7 2 4 4 4 4 4 4 3 4 3 4 4 3 2 3 4 4 3 2 1 2 2 3 3 3 3 3 2
6 5 5 4 5 5 4 5 5 6 5 5 5 5 4 5 5 5 5 4 4 4 2 4 5 4 2 2 2 4 6 5 4 3 2 1 1 2 2 2 2 2 3
2 5 7 6 4 5 5 5 5 8 7 6 5 5 5 5 5 6 5 5 5 3 3 5 4 6 5 4 3 3 3 4 3 2 2 2 1 2 2 1 1 2 2
4 2 5 6 6 6 5 5 5 5 8 7 6 5 5 5 6 6 6 5 5 4 6 5 5 7 7 7 6 6 5 6 4 4 2 1 1 2 2 1 2 2 2
5 2 4 3 3 3 4 5 5 6 6 6 7 6 7 7 7 6 6 5 5 5 6 5 6 9 9 7 8 9 7 6 5 4 3 2 1 1 2 4 6 3 3
Wind_Direction
146 139 141 156 124 88 61 40 51 48 26 49 53 38 38 185 194 173 150 136 134 118 117 133 131 145 128 151 255 252 237 163 216 255 256 28 53 95 52 44 41 57 56
157 152 171 178 148 102 70 61 56 63 56 56 68 54 39 49 58 78 92 84 91 94 136 139 149 141 132 125 88 28 34 39 241 223 92 27 48 324 91 97 68 57 65
168 163 184 192 151 121 97 80 82 72 65 57 54 58 60 66 70 71 81 82 79 80 76 81 90 123 101 98 79 73 35 15 8 74 66 13 29 51 76 81 77 75 82
174 165 190 192 162 137 112 97 84 79 77 72 63 64 61 64 71 78 78 79 79 72 67 66 70 77 99 100 87 80 66 34 25 82 63 67 71 52 79 110 85 43 58
168 159 166 161 133 126 106 94 87 81 78 73 72 61 61 68 69 77 79 79 84 80 62 73 77 83 80 81 82 62 81 74 46 52 78 56 38 112 194 142 120 117 43
191 171 151 131 123 107 93 88 86 70 65 67 53 60 57 60 86 92 94 92 84 84 87 68 61 70 72 75 76 72 68 136 154 176 157 133 60 43 7 57 130 127 110
204 164 157 137 120 111 103 92 86 83 76 66 56 54 53 49 77 92 90 88 91 93 93 92 80 74 73 78 75 66 57 52 40 153 118 91 105 13 22 53 54 64 103
12 155 125 120 121 118 108 100 82 80 76 68 57 47 45 22 102 92 85 84 73 54 48 54 109 118 118 93 82 70 52 42 48 64 78 69 41 324 127 129 152 117 108
356 168 134 130 123 118 110 103 94 89 76 60 42 41 42 53 76 101 97 85 75 55 43 38 62 80 81 67 85 77 67 54 44 60 68 63 53 49 41 47 34 75 43
5 30 111 126 121 112 103 99 96 91 88 77 64 51 46 44 23 79 88 89 80 71 53 53 59 82 73 66 73 69 69 34 46 45 32 40 45 49 46 52 65 59 30
27 53 61 76 101 105 105 102 107 105 94 83 72 56 60 51 54 64 81 91 89 81 67 50 47 68 70 67 65 66 68 70 62 74 73 74 46 48 50 44 67 112 108
57 59 57 68 76 98 101 92 95 100 94 85 83 71 49 52 56 72 71 80 86 91 80 66 48 55 66 69 66 60 46 46 56 59 69 46 42 16 8 333 347 29 43
77 71 68 67 71 67 83 88 95 86 101 98 92 86 70 47 68 60 80 88 87 92 102 103 76 40 47 47 54 55 51 45 53 60 44 27 21 7 10 18 358 10 28
79 72 68 79 73 67 65 63 88 95 90 96 98 93 89 75 63 54 67 71 72 74 69 46 39 40 49 50 42 35 48 57 65 66 40 353 356 25 19 1 18 356 24
82 81 80 81 84 77 65 59 75 42 82 114 99 110 115 103 85 25 67 74 79 86 79 41 32 35 33 33 39 37 24 34 36 31 45 39 27 22 354 350 9 24 62
94 90 87 86 78 82 89 69 47 65 70 80 88 102 48 98 107 103 81 75 84 117 68 83 67 60 64 64 74 45 29 45 40 49 44 44 41 27 0 358 24 60 58
105 107 107 104 105 108 96 108 103 40 56 62 82 102 109 144 108 72 31 87 94 98 87 66 78 81 86 84 90 83 53 4 30 47 61 46 26 25 26 9 5 22 358
117 123 129 141 143 143 136 123 123 125 114 62 23 102 91 81 68 63 41 84 62 37 99 111 110 116 110 88 51 38 14 27 43 53 52 39 30 32 13 13 0 330 337
149 153 153 150 147 147 123 116 117 118 121 130 86 30 359 22 22 36 41 95 119 110 114 113 136 128 110 93 69 37 1 22 79 75 46 50 28 24 0 1 340 10 13
164 177 166 164 161 157 149 147 140 152 144 151 153 179 174 58 49 31 49 101 108 111 145 152 168 129 132 125 73 45 25 88 112 87 67 55 32 22 5 337 359 1 340
195 192 177 174 189 185 186 189 181 185 166 176 196 203 182 129 198 174 148 139 134 136 132 124 171 165 185 174 162 86 86 105 97 119 99 47 22 359 352 327 321 348 340
197 174 171 158 163 159 162 162 173 179 170 179 207 190 180 159 157 153 170 155 164 160 159 131 125 171 177 197 211 123 154 156 171 156 76 33 11 341 344 8 343 354 38
216 172 164 164 162 152 148 143 153 170 173 186 182 168 178 172 165 171 169 170 172 184 162 120 125 119 166 190 195 169 157 176 184 174 184 345 345 342 7 354 330 9 9
161 198 170 173 171 163 167 174 160 176 183 190 180 175 176 172 173 172 172 176 184 177 150 146 148 146 143 137 126 126 144 152 165 188 148 159 257 330 340 355 8 322 329
27 56 174 172 176 184 184 193 178 185 183 187 191 188 188 173 177 180 181 189 167 163 170 163 170 157 163 166 168 169 170 164 168 164 136 143 228 318 329 328 308 312 328
7 18 171 152 167 196 200 194 202 189 184 187 192 184 179 184 191 181 187 181 171 168 172 181 186 183 176 180 184 186 182 179 178 172 146 154 156 297 326 317 303 291 309